Kezdőlap
METAR-TAF:

METAR-TAF

Repülőterek :

Jackson Municipal Airport

Jackson, Minnesota, Amerikai Egyesült Államok

földrajzi szélesség: 43-39N, földrajzi hosszúság: 094-59W, magasság: 441 m

Jelenlegi meteorológiai megfigyelések

A jelentés 16 perccel ezelõtt készült, 14:15 UTC
Kelet-délkeleti szél 3 kt
Hőmérséklet 26°C
Páratartalom 79%
Légköri nyomás 1018 hPa
Látótávolság: 16.1 km
Derült ég
zivatar a közelben

METAR: KMJQ 281415Z AUTO 12003KT 10SM VCTS CLR 26/22 A3007 RMK AO2

Idő: 09:31 (14:31 UTC)


TAF: hiányzik

Meteorológiai megfigyelések és előrejelzések több, mint 4000 repülőtéren (METAR és TAF jelentéseket).

A térképen piros és sárga pontok jelzik az elérhető meteorológiai állomásokat.

Mozgassa az egeret a pont fölött, hogy megjelenjen az állomás neve.

Azután kattintson az időjárási megfigyelések és előrejelzések megtekintéséhez.

A térkép megváltoztatása: kattintson a fekete keresztel jelölt zöld gombra ráközelítéshez, a vonallal jelölt zöld gombra távolításhoz, vagy a zöld nyilakra a szomszédos térképek eléréséhez.


METAR-TAF: